Flag for France Weather past 2 weeks in Bastia, Corsica, France

Now
68 °F

Scattered clouds.


Feels Like: 68 °F
Forecast: 55 / 68 °F
Wind: 23 mph from North

Location: Bastia Airport

Current Time: Oct 22, 2014 at 4:36:04 PM

Latest Report: Oct 22, 2014 at 4:00 PM


Visibility: N/A

Pressure: 29.83 "Hg

Humidity: 20%

Dew point: 25 °F

Location of BastiaLocation

Historic Weather in Bastia — Graph

°F

Bastia temperature yesterday

Maximum temperature yesterday: 77 °F (at 12:30 PM)
Minimum temperature yesterday: 59 °F (at 2:00 AM)
Average temperature yesterday: 66 °F

Past Weeks' High & Low Weather Summary

 TemperatureHumidityPressure
High81 °F (Oct 8, 12:30 PM)94% (Oct 8, 8:00 PM)30.27 "Hg (Oct 8, 8:00 PM)
Low59 °F (Oct 8, 3:30 AM)16% (Oct 22, 2:00 PM)29.62 "Hg (Oct 22, 4:30 AM)
Average70 °F79%29.98 "Hg
* Reported Oct 7 3:00 PM — Oct 22 3:30 PM, Bastia, Weather by CustomWeather, © 2014

Note: Actual official high and low records may vary slightly from our data, if they occured in-between our weather recording intervals... More about our weather records

Advertising

Bastia weather history for previous 24 hours

 ConditionsComfort  
Time TempWeatherWind HumidityBarometerVisibility
3:30 PM
Oct 22
68 °FScattered clouds.22 mph16%29.83 "HgN/A
3:00 PM72 °FScattered clouds.13 mph17%29.83 "HgN/A
2:45 PM70 °FScattered clouds.18 mph18%29.83 "HgN/A
2:00 PM70 °FPartly sunny.21 mph16%29.86 "HgN/A
1:30 PM72 °FScattered clouds.22 mph19%29.86 "HgN/A
1:00 PM72 °FPartly sunny.22 mph20%29.86 "HgN/A
12:30 PM70 °FPartly sunny.22 mph21%29.86 "HgN/A
12:00 PM70 °FPartly sunny.21 mph27%29.86 "HgN/A
11:30 AM72 °FScattered clouds.21 mph25%29.86 "HgN/A
11:00 AM72 °FScattered clouds.22 mph25%29.83 "HgN/A
10:30 AM70 °FPassing clouds.18 mph29%29.83 "HgN/A
10:00 AM72 °FPassing clouds.16 mph25%29.83 "HgN/A
9:30 AM70 °FPassing clouds.14 mph27%29.80 "HgN/A
9:00 AM70 °FPassing clouds.15 mph27%29.80 "HgN/A
8:30 AM68 °FPassing clouds.17 mph30%29.77 "HgN/A
8:00 AM68 °FPartly cloudy.16 mph43%29.74 "HgN/A
7:30 AM68 °FPartly cloudy.18 mph46%29.74 "HgN/A
7:00 AM68 °FPartly cloudy.22 mph46%29.71 "HgN/A
6:30 AM72 °FPartly cloudy.29 mph41%29.68 "HgN/A
6:00 AM72 °FPartly cloudy.14 mph41%29.68 "HgN/A
5:30 AM72 °FPartly cloudy.20 mph44%29.68 "HgN/A
5:00 AM73 °FPartly cloudy.23 mph36%29.68 "HgN/A
4:30 AM72 °FPassing clouds.15 mph38%29.62 "HgN/A
4:00 AM73 °FPassing clouds.15 mph38%29.65 "HgN/A
3:30 AM66 °FPassing clouds.3 mph56%29.65 "HgN/A
3:00 AM68 °FClear.3 mph53%29.65 "HgN/A
2:30 AM70 °FClear.2 mph46%29.65 "HgN/A
2:00 AM73 °FClear.9 mph41%29.65 "HgN/A
1:30 AM73 °FClear.5 mph41%29.65 "HgN/A
1:00 AM75 °FPassing clouds.10 mph36%29.68 "HgN/A
12:30 AM75 °FPassing clouds.7 mph39%29.71 "HgN/A
12:00 AM73 °FPassing clouds.5 mph47%29.74 "HgN/A
11:30 PM
Oct 21
68 °FPassing clouds.6 mph64%29.74 "HgN/A
11:00 PM63 °FPassing clouds.5 mph77%29.74 "HgN/A
10:30 PM63 °FPassing clouds.3 mph77%29.77 "HgN/A
10:00 PM63 °FPassing clouds.5 mph83%29.77 "HgN/A
9:30 PM61 °FPassing clouds.3 mph88%29.80 "HgN/A
9:00 PM63 °FPassing clouds.3 mph88%29.80 "HgN/A
8:30 PM63 °FPassing clouds.3 mph88%29.80 "HgN/A
8:00 PM64 °FPassing clouds.2 mph88%29.80 "HgN/A
7:30 PM68 °FPartly sunny.1 mph83%29.80 "HgN/A
7:00 PM68 °FPartly sunny.3 mph83%29.80 "HgN/A
6:30 PM70 °FPartly sunny.3 mph83%29.83 "HgN/A
6:00 PM72 °FPartly sunny.2 mph78%29.83 "HgN/A
5:30 PM73 °FPartly sunny.2 mph74%29.83 "HgN/A
5:00 PM73 °FPartly sunny.3 mph74%29.83 "HgN/A
4:30 PM73 °FPartly sunny.6 mph69%29.86 "HgN/A
4:00 PM77 °FPartly sunny.5 mph65%29.86 "HgN/A
Weather by CustomWeather, © 2014

See weather overviewHow to use our weather pages